owner,sensor,date,latitude,longitude,vertical_datum,wind_speed,wind_to_direction,wind_speed_of_gust,qcFlag 
WAVCIS,ioos:station:WAVCIS:CSI06:1,2010-09-01T00:00:00Z,28.8667,-90.4833,10.0,9.15,95.0,,'11111222,11111222,99999999' 
WAVCIS,ioos:station:WAVCIS:CSI06:1,2010-09-01T01:00:00Z,28.8667,-90.4833,10.0,8.64,96.0,,'11111222,11111222,99999999' 
WAVCIS,ioos:station:WAVCIS:CSI06:1,2010-09-01T02:00:00Z,28.8667,-90.4833,10.0,8.86,90.0,,'11111222,11111222,99999999' 
WAVCIS,ioos:station:WAVCIS:CSI06:1,2010-09-01T03:00:00Z,28.8667,-90.4833,10.0,9.25,83.0,,'11111222,11111222,99999999' 
WAVCIS,ioos:station:WAVCIS:CSI06:1,2010-09-01T04:00:00Z,28.8667,-90.4833,10.0,9.36,84.0,,'11111222,11111222,99999999' 
WAVCIS,ioos:station:WAVCIS:CSI06:1,2010-09-01T05:00:00Z,28.8667,-90.4833,10.0,9.87,92.0,,'11111222,11111222,99999999' 
WAVCIS,ioos:station:WAVCIS:CSI06:1,2010-09-01T06:00:00Z,28.8667,-90.4833,10.0,9.76,94.0,,'11111222,11111222,99999999' 
WAVCIS,ioos:station:WAVCIS:CSI06:1,2010-09-01T07:00:00Z,28.8667,-90.4833,10.0,8.68,98.0,,'11111222,11111222,99999999' 
WAVCIS,ioos:station:WAVCIS:CSI06:1,2010-09-01T08:00:00Z,28.8667,-90.4833,10.0,8.31,95.0,,'11111222,11111222,99999999' 
WAVCIS,ioos:station:WAVCIS:CSI06:1,2010-09-01T09:00:00Z,28.8667,-90.4833,10.0,7.84,89.0,,'11111222,11111222,99999999' 
WAVCIS,ioos:station:WAVCIS:CSI06:1,2010-09-01T10:00:00Z,28.8667,-90.4833,10.0,8.44,76.0,,'11111222,11111222,99999999' 
WAVCIS,ioos:station:WAVCIS:CSI06:1,2010-09-01T11:00:00Z,28.8667,-90.4833,10.0,8.28,84.0,,'11111222,11111222,99999999' 
WAVCIS,ioos:station:WAVCIS:CSI06:1,2010-09-01T12:00:00Z,28.8667,-90.4833,10.0,9.98,87.0,,'11111222,11111222,99999999' 
WAVCIS,ioos:station:WAVCIS:CSI06:1,2010-09-01T13:00:00Z,28.8667,-90.4833,10.0,7.09,85.0,,'11111222,11111222,99999999' 
WAVCIS,ioos:station:WAVCIS:CSI06:1,2010-09-01T14:00:00Z,28.8667,-90.4833,10.0,4.123,110.0,,'11111222,11111222,99999999' 
WAVCIS,ioos:station:WAVCIS:CSI06:1,2010-09-01T15:00:00Z,28.8667,-90.4833,10.0,10.19,93.0,,'11111222,11111222,99999999' 
WAVCIS,ioos:station:WAVCIS:CSI06:1,2010-09-01T16:00:00Z,28.8667,-90.4833,10.0,10.51,88.0,,'11111222,11111222,99999999' 
WAVCIS,ioos:station:WAVCIS:CSI06:1,2010-09-01T17:00:00Z,28.8667,-90.4833,10.0,10.14,100.0,,'11111222,11111222,99999999' 
WAVCIS,ioos:station:WAVCIS:CSI06:1,2010-09-01T18:00:00Z,28.8667,-90.4833,10.0,5.817,111.0,,'11111222,11111222,99999999' 
WAVCIS,ioos:station:WAVCIS:CSI06:1,2010-09-01T19:00:00Z,28.8667,-90.4833,10.0,8.88,84.0,,'11111222,11111222,99999999' 
WAVCIS,ioos:station:WAVCIS:CSI06:1,2010-09-01T20:00:00Z,28.8667,-90.4833,10.0,8.59,93.0,,'11111222,11111222,99999999' 
WAVCIS,ioos:station:WAVCIS:CSI06:1,2010-09-01T21:00:00Z,28.8667,-90.4833,10.0,7.9,94.0,,'11111222,11111222,99999999' 
WAVCIS,ioos:station:WAVCIS:CSI06:1,2010-09-01T22:00:00Z,28.8667,-90.4833,10.0,8.24,90.0,,'11111222,11111222,99999999' 
WAVCIS,ioos:station:WAVCIS:CSI06:1,2010-09-01T23:00:00Z,28.8667,-90.4833,10.0,7.37,100.0,,'11111222,11111222,99999999' 
WAVCIS,ioos:station:WAVCIS:CSI06:1,2010-09-02T00:00:00Z,28.8667,-90.4833,10.0,8.02,90.0,,'11111222,11111222,99999999' 
WAVCIS,ioos:station:WAVCIS:CSI06:1,2010-09-02T01:00:00Z,28.8667,-90.4833,10.0,7.88,85.0,,'11111222,11111222,99999999' 
WAVCIS,ioos:station:WAVCIS:CSI06:1,2010-09-02T02:00:00Z,28.8667,-90.4833,10.0,8.44,88.0,,'11111222,11111222,99999999' 
WAVCIS,ioos:station:WAVCIS:CSI06:1,2010-09-02T03:00:00Z,28.8667,-90.4833,10.0,9.55,84.0,,'11111222,11111222,99999999' 
WAVCIS,ioos:station:WAVCIS:CSI06:1,2010-09-02T04:00:00Z,28.8667,-90.4833,10.0,10.25,85.0,,'11111222,11111222,99999999' 
WAVCIS,ioos:station:WAVCIS:CSI06:1,2010-09-02T05:00:00Z,28.8667,-90.4833,10.0,10.62,84.0,,'11111222,11111222,99999999' 
WAVCIS,ioos:station:WAVCIS:CSI06:1,2010-09-02T06:00:00Z,28.8667,-90.4833,10.0,10.2,87.0,,'11111222,11111222,99999999' 
WAVCIS,ioos:station:WAVCIS:CSI06:1,2010-09-02T07:00:00Z,28.8667,-90.4833,10.0,10.35,96.0,,'11111222,11111222,99999999' 
WAVCIS,ioos:station:WAVCIS:CSI06:1,2010-09-02T08:00:00Z,28.8667,-90.4833,10.0,8.27,98.0,,'11111222,11111222,99999999' 
WAVCIS,ioos:station:WAVCIS:CSI06:1,2010-09-02T09:00:00Z,28.8667,-90.4833,10.0,7.59,92.0,,'11111222,11111222,99999999' 
WAVCIS,ioos:station:WAVCIS:CSI06:1,2010-09-02T10:00:00Z,28.8667,-90.4833,10.0,8.05,86.0,,'11111222,11111222,99999999' 
WAVCIS,ioos:station:WAVCIS:CSI06:1,2010-09-02T11:00:00Z,28.8667,-90.4833,10.0,8.57,82.0,,'11111222,11111222,99999999' 
WAVCIS,ioos:station:WAVCIS:CSI06:1,2010-09-02T12:00:00Z,28.8667,-90.4833,10.0,9.52,84.0,,'11111222,11111222,99999999' 
WAVCIS,ioos:station:WAVCIS:CSI06:1,2010-09-02T13:00:00Z,28.8667,-90.4833,10.0,9.66,105.0,,'11111222,11111222,99999999' 
WAVCIS,ioos:station:WAVCIS:CSI06:1,2010-09-02T14:00:00Z,28.8667,-90.4833,10.0,8.08,102.0,,'11111222,11111222,99999999' 
WAVCIS,ioos:station:WAVCIS:CSI06:1,2010-09-02T15:00:00Z,28.8667,-90.4833,10.0,9.11,103.0,,'11111222,11111222,99999999' 
WAVCIS,ioos:station:WAVCIS:CSI06:1,2010-09-02T16:00:00Z,28.8667,-90.4833,10.0,7.89,106.0,,'11111222,11111222,99999999' 
WAVCIS,ioos:station:WAVCIS:CSI06:1,2010-09-02T17:00:00Z,28.8667,-90.4833,10.0,7.43,112.0,,'11111222,11111222,99999999' 
WAVCIS,ioos:station:WAVCIS:CSI06:1,2010-09-02T18:00:00Z,28.8667,-90.4833,10.0,6.031,114.0,,'11111222,11111222,99999999' 
WAVCIS,ioos:station:WAVCIS:CSI06:1,2010-09-02T19:00:00Z,28.8667,-90.4833,10.0,5.196,101.0,,'11111222,11111222,99999999' 
WAVCIS,ioos:station:WAVCIS:CSI06:1,2010-09-02T20:00:00Z,28.8667,-90.4833,10.0,5.315,89.0,,'11111222,11111222,99999999' 
WAVCIS,ioos:station:WAVCIS:CSI06:1,2010-09-02T21:00:00Z,28.8667,-90.4833,10.0,5.424,80.0,,'11111222,11111222,99999999' 
WAVCIS,ioos:station:WAVCIS:CSI06:1,2010-09-02T22:00:00Z,28.8667,-90.4833,10.0,7.81,79.0,,'11111222,11111222,99999999' 
WAVCIS,ioos:station:WAVCIS:CSI06:1,2010-09-02T23:00:00Z,28.8667,-90.4833,10.0,7.31,90.0,,'11111222,11111222,99999999' 
WAVCIS,ioos:station:WAVCIS:CSI06:1,2010-09-03T00:00:00Z,28.8667,-90.4833,10.0,6.671,90.0,,'11111222,11111222,99999999' 
WAVCIS,ioos:station:WAVCIS:CSI06:1,2010-09-03T01:00:00Z,28.8667,-90.4833,10.0,6.995,86.0,,'11111222,11111222,99999999' 
WAVCIS,ioos:station:WAVCIS:CSI06:1,2010-09-03T02:00:00Z,28.8667,-90.4833,10.0,7.19,96.0,,'11111222,11111222,99999999' 
WAVCIS,ioos:station:WAVCIS:CSI06:1,2010-09-03T03:00:00Z,28.8667,-90.4833,10.0,6.767,96.0,,'11111222,11111222,99999999' 
WAVCIS,ioos:station:WAVCIS:CSI06:1,2010-09-03T04:00:00Z,28.8667,-90.4833,10.0,6.704,115.0,,'11111222,11111222,99999999' 
WAVCIS,ioos:station:WAVCIS:CSI06:1,2010-09-03T05:00:00Z,28.8667,-90.4833,10.0,7.01,122.0,,'11111222,11111222,99999999' 
WAVCIS,ioos:station:WAVCIS:CSI06:1,2010-09-03T06:00:00Z,28.8667,-90.4833,10.0,6.076,118.0,,'11111222,11111222,99999999' 
WAVCIS,ioos:station:WAVCIS:CSI06:1,2010-09-03T07:00:00Z,28.8667,-90.4833,10.0,4.674,118.0,,'11111222,11111222,99999999' 
WAVCIS,ioos:station:WAVCIS:CSI06:1,2010-09-03T08:00:00Z,28.8667,-90.4833,10.0,3.434,122.0,,'11111222,11111222,99999999' 
WAVCIS,ioos:station:WAVCIS:CSI06:1,2010-09-03T09:00:00Z,28.8667,-90.4833,10.0,3.133,123.0,,'11111222,11111222,99999999' 
WAVCIS,ioos:station:WAVCIS:CSI06:1,2010-09-03T10:00:00Z,28.8667,-90.4833,10.0,3.357,127.0,,'11111222,11111222,99999999' 
WAVCIS,ioos:station:WAVCIS:CSI06:1,2010-09-03T11:00:00Z,28.8667,-90.4833,10.0,2.176,95.0,,'11111222,11111222,99999999' 
WAVCIS,ioos:station:WAVCIS:CSI06:1,2010-09-03T12:00:00Z,28.8667,-90.4833,10.0,2.923,73.0,,'11111222,11111222,99999999' 
WAVCIS,ioos:station:WAVCIS:CSI06:1,2010-09-03T13:00:00Z,28.8667,-90.4833,10.0,4.076,76.0,,'11111222,11111222,99999999' 
WAVCIS,ioos:station:WAVCIS:CSI06:1,2010-09-03T14:00:00Z,28.8667,-90.4833,10.0,4.465,83.0,,'11111222,11111222,99999999' 
WAVCIS,ioos:station:WAVCIS:CSI06:1,2010-09-03T15:00:00Z,28.8667,-90.4833,10.0,4.303,80.0,,'11111222,11111222,99999999' 
WAVCIS,ioos:station:WAVCIS:CSI06:1,2010-09-03T16:00:00Z,28.8667,-90.4833,10.0,5.15,83.0,,'11111222,11111222,99999999' 
WAVCIS,ioos:station:WAVCIS:CSI06:1,2010-09-03T17:00:00Z,28.8667,-90.4833,10.0,4.489,78.0,,'11111222,11111222,99999999' 
WAVCIS,ioos:station:WAVCIS:CSI06:1,2010-09-03T18:00:00Z,28.8667,-90.4833,10.0,3.824,102.0,,'11111222,11111222,99999999' 
WAVCIS,ioos:station:WAVCIS:CSI06:1,2010-09-03T19:00:00Z,28.8667,-90.4833,10.0,4.614,99.0,,'11111222,11111222,99999999' 
WAVCIS,ioos:station:WAVCIS:CSI06:1,2010-09-03T20:00:00Z,28.8667,-90.4833,10.0,4.158,83.0,,'11111222,11111222,99999999' 
WAVCIS,ioos:station:WAVCIS:CSI06:1,2010-09-03T21:00:00Z,28.8667,-90.4833,10.0,4.368,83.0,,'11111222,11111222,99999999' 
WAVCIS,ioos:station:WAVCIS:CSI06:1,2010-09-03T22:00:00Z,28.8667,-90.4833,10.0,4.69,87.0,,'11111222,11111222,99999999' 
WAVCIS,ioos:station:WAVCIS:CSI06:1,2010-09-03T23:00:00Z,28.8667,-90.4833,10.0,5.079,95.0,,'11111222,11111222,99999999' 
WAVCIS,ioos:station:WAVCIS:CSI06:1,2010-09-04T00:00:00Z,28.8667,-90.4833,10.0,4.441,90.0,,'11111222,11111222,99999999' 
WAVCIS,ioos:station:WAVCIS:CSI06:1,2010-09-04T01:00:00Z,28.8667,-90.4833,10.0,4.337,104.0,,'11111222,11111222,99999999' 
WAVCIS,ioos:station:WAVCIS:CSI06:1,2010-09-04T02:00:00Z,28.8667,-90.4833,10.0,4.469,108.0,,'11111222,11111222,99999999' 
WAVCIS,ioos:station:WAVCIS:CSI06:1,2010-09-04T03:00:00Z,28.8667,-90.4833,10.0,3.14,116.0,,'11111222,11111222,99999999' 
WAVCIS,ioos:station:WAVCIS:CSI06:1,2010-09-04T04:00:00Z,28.8667,-90.4833,10.0,3.758,125.0,,'11111222,11111222,99999999' 
WAVCIS,ioos:station:WAVCIS:CSI06:1,2010-09-04T05:00:00Z,28.8667,-90.4833,10.0,2.971,132.0,,'11111222,11111222,99999999' 
WAVCIS,ioos:station:WAVCIS:CSI06:1,2010-09-04T06:00:00Z,28.8667,-90.4833,10.0,2.629,127.0,,'11111222,11111222,99999999' 
WAVCIS,ioos:station:WAVCIS:CSI06:1,2010-09-04T07:00:00Z,28.8667,-90.4833,10.0,2.596,124.0,,'11111222,11111222,99999999' 
WAVCIS,ioos:station:WAVCIS:CSI06:1,2010-09-04T08:00:00Z,28.8667,-90.4833,10.0,1.487,98.0,,'11111222,11111222,99999999' 
WAVCIS,ioos:station:WAVCIS:CSI06:1,2010-09-04T09:00:00Z,28.8667,-90.4833,10.0,1.418,27.0,,'11111222,11111222,99999999' 
WAVCIS,ioos:station:WAVCIS:CSI06:1,2010-09-04T10:00:00Z,28.8667,-90.4833,10.0,1.337,18.0,,'11111222,11111222,99999999' 
WAVCIS,ioos:station:WAVCIS:CSI06:1,2010-09-04T11:00:00Z,28.8667,-90.4833,10.0,2.41,12.0,,'11111222,11111222,99999999' 
WAVCIS,ioos:station:WAVCIS:CSI06:1,2010-09-04T12:00:00Z,28.8667,-90.4833,10.0,2.892,12.0,,'11111222,11111222,99999999' 
WAVCIS,ioos:station:WAVCIS:CSI06:1,2010-09-04T13:00:00Z,28.8667,-90.4833,10.0,4.361,14.0,,'11111222,11111222,99999999' 
WAVCIS,ioos:station:WAVCIS:CSI06:1,2010-09-04T14:00:00Z,28.8667,-90.4833,10.0,3.962,5.0,,'11111222,11111222,99999999' 
WAVCIS,ioos:station:WAVCIS:CSI06:1,2010-09-04T15:00:00Z,28.8667,-90.4833,10.0,5.734,11.0,,'11111222,11111222,99999999' 
WAVCIS,ioos:station:WAVCIS:CSI06:1,2010-09-04T16:00:00Z,28.8667,-90.4833,10.0,4.884,15.0,,'11111222,11111222,99999999' 
WAVCIS,ioos:station:WAVCIS:CSI06:1,2010-09-04T17:00:00Z,28.8667,-90.4833,10.0,4.182,41.0,,'11111222,11111222,99999999' 
WAVCIS,ioos:station:WAVCIS:CSI06:1,2010-09-04T18:00:00Z,28.8667,-90.4833,10.0,6.582,66.0,,'11111222,11111222,99999999' 
WAVCIS,ioos:station:WAVCIS:CSI06:1,2010-09-04T19:00:00Z,28.8667,-90.4833,10.0,7.21,69.0,,'11111222,11111222,99999999' 
WAVCIS,ioos:station:WAVCIS:CSI06:1,2010-09-04T20:00:00Z,28.8667,-90.4833,10.0,6.977,74.0,,'11111222,11111222,99999999' 
WAVCIS,ioos:station:WAVCIS:CSI06:1,2010-09-04T21:00:00Z,28.8667,-90.4833,10.0,6.116,71.0,,'11111222,11111222,99999999' 
WAVCIS,ioos:station:WAVCIS:CSI06:1,2010-09-04T22:00:00Z,28.8667,-90.4833,10.0,5.373,71.0,,'11111222,11111222,99999999' 
WAVCIS,ioos:station:WAVCIS:CSI06:1,2010-09-04T23:00:00Z,28.8667,-90.4833,10.0,5.117,75.0,,'11111222,11111222,99999999' 
WAVCIS,ioos:station:WAVCIS:CSI06:1,2010-09-05T00:00:00Z,28.8667,-90.4833,10.0,5.122,87.0,,'11111222,11111222,99999999' 
WAVCIS,ioos:station:WAVCIS:CSI06:1,2010-09-05T01:00:00Z,28.8667,-90.4833,10.0,4.618,83.0,,'11111222,11111222,99999999' 
WAVCIS,ioos:station:WAVCIS:CSI06:1,2010-09-05T02:00:00Z,28.8667,-90.4833,10.0,6.101,75.0,,'11111222,11111222,99999999' 
WAVCIS,ioos:station:WAVCIS:CSI06:1,2010-09-05T03:00:00Z,28.8667,-90.4833,10.0,4.878,83.0,,'11111222,11111222,99999999' 
WAVCIS,ioos:station:WAVCIS:CSI06:1,2010-09-05T04:00:00Z,28.8667,-90.4833,10.0,6.177,77.0,,'11111222,11111222,99999999' 
WAVCIS,ioos:station:WAVCIS:CSI06:1,2010-09-05T05:00:00Z,28.8667,-90.4833,10.0,5.348,58.0,,'11111222,11111222,99999999' 
WAVCIS,ioos:station:WAVCIS:CSI06:1,2010-09-05T06:00:00Z,28.8667,-90.4833,10.0,5.326,55.0,,'11111222,11111222,99999999' 
WAVCIS,ioos:station:WAVCIS:CSI06:1,2010-09-05T07:00:00Z,28.8667,-90.4833,10.0,5.273,52.0,,'11111222,11111222,99999999' 
WAVCIS,ioos:station:WAVCIS:CSI06:1,2010-09-05T08:00:00Z,28.8667,-90.4833,10.0,6.48,53.0,,'11111222,11111222,99999999' 
WAVCIS,ioos:station:WAVCIS:CSI06:1,2010-09-05T09:00:00Z,28.8667,-90.4833,10.0,7.6,53.0,,'11111222,11111222,99999999' 
WAVCIS,ioos:station:WAVCIS:CSI06:1,2010-09-05T10:00:00Z,28.8667,-90.4833,10.0,7.57,69.0,,'11111222,11111222,99999999' 
WAVCIS,ioos:station:WAVCIS:CSI06:1,2010-09-05T11:00:00Z,28.8667,-90.4833,10.0,7.47,65.0,,'11111222,11111222,99999999' 
WAVCIS,ioos:station:WAVCIS:CSI06:1,2010-09-05T12:00:00Z,28.8667,-90.4833,10.0,8.52,73.0,,'11111222,11111222,99999999' 
WAVCIS,ioos:station:WAVCIS:CSI06:1,2010-09-05T13:00:00Z,28.8667,-90.4833,10.0,7.84,74.0,,'11111222,11111222,99999999' 
WAVCIS,ioos:station:WAVCIS:CSI06:1,2010-09-05T14:00:00Z,28.8667,-90.4833,10.0,6.69,80.0,,'11111222,11111222,99999999' 
WAVCIS,ioos:station:WAVCIS:CSI06:1,2010-09-05T15:00:00Z,28.8667,-90.4833,10.0,7.55,74.0,,'11111222,11111222,99999999' 
WAVCIS,ioos:station:WAVCIS:CSI06:1,2010-09-05T16:00:00Z,28.8667,-90.4833,10.0,7.67,95.0,,'11111222,11111222,99999999' 
WAVCIS,ioos:station:WAVCIS:CSI06:1,2010-09-05T17:00:00Z,28.8667,-90.4833,10.0,8.89,141.0,,'11111222,11111222,99999999' 
WAVCIS,ioos:station:WAVCIS:CSI06:1,2010-09-05T18:00:00Z,28.8667,-90.4833,10.0,8.68,157.0,,'11111222,11111222,99999999' 
WAVCIS,ioos:station:WAVCIS:CSI06:1,2010-09-05T19:00:00Z,28.8667,-90.4833,10.0,6.515,181.0,,'11111222,11111222,99999999' 
WAVCIS,ioos:station:WAVCIS:CSI06:1,2010-09-05T20:00:00Z,28.8667,-90.4833,10.0,3.545,235.0,,'11111222,11111222,99999999' 
WAVCIS,ioos:station:WAVCIS:CSI06:1,2010-09-05T21:00:00Z,28.8667,-90.4833,10.0,1.689,140.0,,'11111222,11111222,99999999' 
WAVCIS,ioos:station:WAVCIS:CSI06:1,2010-09-05T22:00:00Z,28.8667,-90.4833,10.0,4.228,104.0,,'11111222,11111222,99999999' 
WAVCIS,ioos:station:WAVCIS:CSI06:1,2010-09-05T23:00:00Z,28.8667,-90.4833,10.0,6.629,112.0,,'11111222,11111222,99999999' 
WAVCIS,ioos:station:WAVCIS:CSI06:1,2010-09-06T00:00:00Z,28.8667,-90.4833,10.0,5.195,114.0,,'11111222,11111222,99999999' 
WAVCIS,ioos:station:WAVCIS:CSI06:1,2010-09-06T01:00:00Z,28.8667,-90.4833,10.0,5.871,105.0,,'11111222,11111222,99999999' 
WAVCIS,ioos:station:WAVCIS:CSI06:1,2010-09-06T02:00:00Z,28.8667,-90.4833,10.0,6.167,119.0,,'11111222,11111222,99999999' 
WAVCIS,ioos:station:WAVCIS:CSI06:1,2010-09-06T03:00:00Z,28.8667,-90.4833,10.0,7.32,126.0,,'11111222,11111222,99999999' 
WAVCIS,ioos:station:WAVCIS:CSI06:1,2010-09-06T04:00:00Z,28.8667,-90.4833,10.0,6.404,116.0,,'11111222,11111222,99999999' 
WAVCIS,ioos:station:WAVCIS:CSI06:1,2010-09-06T05:00:00Z,28.8667,-90.4833,10.0,7.25,119.0,,'11111222,11111222,99999999' 
WAVCIS,ioos:station:WAVCIS:CSI06:1,2010-09-06T06:00:00Z,28.8667,-90.4833,10.0,7.34,125.0,,'11111222,11111222,99999999' 
WAVCIS,ioos:station:WAVCIS:CSI06:1,2010-09-06T07:00:00Z,28.8667,-90.4833,10.0,7.26,125.0,,'11111222,11111222,99999999' 
WAVCIS,ioos:station:WAVCIS:CSI06:1,2010-09-06T08:00:00Z,28.8667,-90.4833,10.0,6.966,129.0,,'11111222,11111222,99999999' 
WAVCIS,ioos:station:WAVCIS:CSI06:1,2010-09-06T09:00:00Z,28.8667,-90.4833,10.0,7.78,128.0,,'11111222,11111222,99999999' 
WAVCIS,ioos:station:WAVCIS:CSI06:1,2010-09-06T10:00:00Z,28.8667,-90.4833,10.0,7.3,118.0,,'11111222,11111222,99999999' 
WAVCIS,ioos:station:WAVCIS:CSI06:1,2010-09-06T11:00:00Z,28.8667,-90.4833,10.0,8.49,120.0,,'11111222,11111222,99999999' 
WAVCIS,ioos:station:WAVCIS:CSI06:1,2010-09-06T12:00:00Z,28.8667,-90.4833,10.0,8.69,127.0,,'11111222,11111222,99999999' 
WAVCIS,ioos:station:WAVCIS:CSI06:1,2010-09-06T13:00:00Z,28.8667,-90.4833,10.0,9.87,124.0,,'11111222,11111222,99999999' 
WAVCIS,ioos:station:WAVCIS:CSI06:1,2010-09-06T14:00:00Z,28.8667,-90.4833,10.0,8.79,120.0,,'11111222,11111222,99999999' 
WAVCIS,ioos:station:WAVCIS:CSI06:1,2010-09-06T15:00:00Z,28.8667,-90.4833,10.0,9.68,126.0,,'11111222,11111222,99999999' 
WAVCIS,ioos:station:WAVCIS:CSI06:1,2010-09-06T16:00:00Z,28.8667,-90.4833,10.0,8.26,128.0,,'11111222,11111222,99999999' 
WAVCIS,ioos:station:WAVCIS:CSI06:1,2010-09-06T17:00:00Z,28.8667,-90.4833,10.0,8.38,130.0,,'11111222,11111222,99999999' 
WAVCIS,ioos:station:WAVCIS:CSI06:1,2010-09-06T18:00:00Z,28.8667,-90.4833,10.0,8.61,130.0,,'11111222,11111222,99999999' 
WAVCIS,ioos:station:WAVCIS:CSI06:1,2010-09-06T19:00:00Z,28.8667,-90.4833,10.0,6.882,133.0,,'11111222,11111222,99999999' 
WAVCIS,ioos:station:WAVCIS:CSI06:1,2010-09-06T20:00:00Z,28.8667,-90.4833,10.0,7.95,220.0,,'11111222,11111222,99999999' 
WAVCIS,ioos:station:WAVCIS:CSI06:1,2010-09-06T21:00:00Z,28.8667,-90.4833,10.0,2.994,181.0,,'11111222,11111222,99999999' 
WAVCIS,ioos:station:WAVCIS:CSI06:1,2010-09-06T22:00:00Z,28.8667,-90.4833,10.0,6.187,125.0,,'11111222,11111222,99999999' 
WAVCIS,ioos:station:WAVCIS:CSI06:1,2010-09-06T23:00:00Z,28.8667,-90.4833,10.0,7.05,124.0,,'11111222,11111222,99999999' 
WAVCIS,ioos:station:WAVCIS:CSI06:1,2010-09-07T00:00:00Z,28.8667,-90.4833,10.0,8.3,114.0,,'11111222,11111222,99999999' 
WAVCIS,ioos:station:WAVCIS:CSI06:1,2010-09-07T01:00:00Z,28.8667,-90.4833,10.0,8.65,116.0,,'11111222,11111222,99999999' 
WAVCIS,ioos:station:WAVCIS:CSI06:1,2010-09-07T02:00:00Z,28.8667,-90.4833,10.0,9.03,115.0,,'11111222,11111222,99999999' 
WAVCIS,ioos:station:WAVCIS:CSI06:1,2010-09-07T03:00:00Z,28.8667,-90.4833,10.0,9.26,112.0,,'11111222,11111222,99999999' 
WAVCIS,ioos:station:WAVCIS:CSI06:1,2010-09-07T04:00:00Z,28.8667,-90.4833,10.0,9.93,118.0,,'11111222,11111222,99999999' 
WAVCIS,ioos:station:WAVCIS:CSI06:1,2010-09-07T05:00:00Z,28.8667,-90.4833,10.0,10.23,120.0,,'11111222,11111222,99999999' 
WAVCIS,ioos:station:WAVCIS:CSI06:1,2010-09-07T06:00:00Z,28.8667,-90.4833,10.0,10.33,126.0,,'11111222,11111222,99999999' 
WAVCIS,ioos:station:WAVCIS:CSI06:1,2010-09-07T07:00:00Z,28.8667,-90.4833,10.0,9.65,129.0,,'11111222,11111222,99999999' 
WAVCIS,ioos:station:WAVCIS:CSI06:1,2010-09-07T08:00:00Z,28.8667,-90.4833,10.0,9.2,130.0,,'11111222,11111222,99999999' 
WAVCIS,ioos:station:WAVCIS:CSI06:1,2010-09-07T09:00:00Z,28.8667,-90.4833,10.0,9.88,133.0,,'11111222,11111222,99999999' 
WAVCIS,ioos:station:WAVCIS:CSI06:1,2010-09-07T10:00:00Z,28.8667,-90.4833,10.0,8.82,132.0,,'11111222,11111222,99999999' 
WAVCIS,ioos:station:WAVCIS:CSI06:1,2010-09-07T11:00:00Z,28.8667,-90.4833,10.0,7.91,129.0,,'11111222,11111222,99999999' 
WAVCIS,ioos:station:WAVCIS:CSI06:1,2010-09-07T12:00:00Z,28.8667,-90.4833,10.0,7.25,138.0,,'11111222,11111222,99999999' 
WAVCIS,ioos:station:WAVCIS:CSI06:1,2010-09-07T13:00:00Z,28.8667,-90.4833,10.0,6.882,130.0,,'11111222,11111222,99999999' 
WAVCIS,ioos:station:WAVCIS:CSI06:1,2010-09-07T14:00:00Z,28.8667,-90.4833,10.0,7.24,126.0,,'11111222,11111222,99999999' 
WAVCIS,ioos:station:WAVCIS:CSI06:1,2010-09-07T15:00:00Z,28.8667,-90.4833,10.0,7.07,124.0,,'11111222,11111222,99999999' 
WAVCIS,ioos:station:WAVCIS:CSI06:1,2010-09-07T16:00:00Z,28.8667,-90.4833,10.0,6.4,114.0,,'11111222,11111222,99999999' 
WAVCIS,ioos:station:WAVCIS:CSI06:1,2010-09-07T17:00:00Z,28.8667,-90.4833,10.0,7.07,116.0,,'11111222,11111222,99999999' 
WAVCIS,ioos:station:WAVCIS:CSI06:1,2010-09-07T18:00:00Z,28.8667,-90.4833,10.0,7.86,110.0,,'11111222,11111222,99999999' 
WAVCIS,ioos:station:WAVCIS:CSI06:1,2010-09-07T19:00:00Z,28.8667,-90.4833,10.0,7.8,104.0,,'11111222,11111222,99999999' 
WAVCIS,ioos:station:WAVCIS:CSI06:1,2010-09-07T20:00:00Z,28.8667,-90.4833,10.0,7.6,104.0,,'11111222,11111222,99999999' 
WAVCIS,ioos:station:WAVCIS:CSI06:1,2010-09-07T21:00:00Z,28.8667,-90.4833,10.0,8.94,107.0,,'11111222,11111222,99999999' 
WAVCIS,ioos:station:WAVCIS:CSI06:1,2010-09-07T22:00:00Z,28.8667,-90.4833,10.0,7.9,106.0,,'11111222,11111222,99999999' 
WAVCIS,ioos:station:WAVCIS:CSI06:1,2010-09-07T23:00:00Z,28.8667,-90.4833,10.0,7.83,106.0,,'11111222,11111222,99999999' 
WAVCIS,ioos:station:WAVCIS:CSI06:1,2010-09-08T00:00:00Z,28.8667,-90.4833,10.0,7.14,109.0,,'11111222,11111222,99999999' 
WAVCIS,ioos:station:WAVCIS:CSI06:1,2010-09-08T01:00:00Z,28.8667,-90.4833,10.0,7.37,101.0,,'11111222,11111222,99999999' 
WAVCIS,ioos:station:WAVCIS:CSI06:1,2010-09-08T02:00:00Z,28.8667,-90.4833,10.0,7.19,109.0,,'11111222,11111222,99999999' 
WAVCIS,ioos:station:WAVCIS:CSI06:1,2010-09-08T03:00:00Z,28.8667,-90.4833,10.0,8.36,105.0,,'11111222,11111222,99999999' 
WAVCIS,ioos:station:WAVCIS:CSI06:1,2010-09-08T04:00:00Z,28.8667,-90.4833,10.0,8.37,107.0,,'11111222,11111222,99999999' 
WAVCIS,ioos:station:WAVCIS:CSI06:1,2010-09-08T05:00:00Z,28.8667,-90.4833,10.0,8.9,106.0,,'11111222,11111222,99999999' 
WAVCIS,ioos:station:WAVCIS:CSI06:1,2010-09-08T06:00:00Z,28.8667,-90.4833,10.0,8.29,110.0,,'11111222,11111222,99999999' 
WAVCIS,ioos:station:WAVCIS:CSI06:1,2010-09-08T07:00:00Z,28.8667,-90.4833,10.0,6.672,120.0,,'11111222,11111222,99999999' 
WAVCIS,ioos:station:WAVCIS:CSI06:1,2010-09-08T08:00:00Z,28.8667,-90.4833,10.0,6.182,122.0,,'11111222,11111222,99999999' 
WAVCIS,ioos:station:WAVCIS:CSI06:1,2010-09-08T09:00:00Z,28.8667,-90.4833,10.0,5.407,133.0,,'11111222,11111222,99999999' 
WAVCIS,ioos:station:WAVCIS:CSI06:1,2010-09-08T10:00:00Z,28.8667,-90.4833,10.0,5.942,113.0,,'11111222,11111222,99999999' 
WAVCIS,ioos:station:WAVCIS:CSI06:1,2010-09-08T11:00:00Z,28.8667,-90.4833,10.0,5.171,116.0,,'11111222,11111222,99999999' 
WAVCIS,ioos:station:WAVCIS:CSI06:1,2010-09-08T12:00:00Z,28.8667,-90.4833,10.0,5.418,106.0,,'11111222,11111222,99999999' 
WAVCIS,ioos:station:WAVCIS:CSI06:1,2010-09-08T13:00:00Z,28.8667,-90.4833,10.0,4.637,114.0,,'11111222,11111222,99999999' 
WAVCIS,ioos:station:WAVCIS:CSI06:1,2010-09-08T14:00:00Z,28.8667,-90.4833,10.0,6.51,95.0,,'11111222,11111222,99999999' 
WAVCIS,ioos:station:WAVCIS:CSI06:1,2010-09-08T15:00:00Z,28.8667,-90.4833,10.0,7.86,94.0,,'11111222,11111222,99999999' 
WAVCIS,ioos:station:WAVCIS:CSI06:1,2010-09-08T16:00:00Z,28.8667,-90.4833,10.0,6.355,98.0,,'11111222,11111222,99999999' 
WAVCIS,ioos:station:WAVCIS:CSI06:1,2010-09-08T17:00:00Z,28.8667,-90.4833,10.0,6.248,95.0,,'11111222,11111222,99999999' 
WAVCIS,ioos:station:WAVCIS:CSI06:1,2010-09-08T18:00:00Z,28.8667,-90.4833,10.0,6.817,100.0,,'11111222,11111222,99999999' 
WAVCIS,ioos:station:WAVCIS:CSI06:1,2010-09-08T19:00:00Z,28.8667,-90.4833,10.0,6.362,102.0,,'11111222,11111222,99999999' 
WAVCIS,ioos:station:WAVCIS:CSI06:1,2010-09-08T20:00:00Z,28.8667,-90.4833,10.0,5.834,108.0,,'11111222,11111222,99999999' 
WAVCIS,ioos:station:WAVCIS:CSI06:1,2010-09-08T21:00:00Z,28.8667,-90.4833,10.0,5.224,94.0,,'11111222,11111222,99999999' 
WAVCIS,ioos:station:WAVCIS:CSI06:1,2010-09-08T22:00:00Z,28.8667,-90.4833,10.0,5.796,102.0,,'11111222,11111222,99999999' 
WAVCIS,ioos:station:WAVCIS:CSI06:1,2010-09-08T23:00:00Z,28.8667,-90.4833,10.0,5.586,102.0,,'11111222,11111222,99999999' 
WAVCIS,ioos:station:WAVCIS:CSI06:1,2010-09-09T00:00:00Z,28.8667,-90.4833,10.0,4.975,90.0,,'11111222,11111222,99999999' 
WAVCIS,ioos:station:WAVCIS:CSI06:1,2010-09-09T01:00:00Z,28.8667,-90.4833,10.0,5.44,107.0,,'11111222,11111222,99999999' 
WAVCIS,ioos:station:WAVCIS:CSI06:1,2010-09-09T02:00:00Z,28.8667,-90.4833,10.0,5.913,110.0,,'11111222,11111222,99999999' 
WAVCIS,ioos:station:WAVCIS:CSI06:1,2010-09-09T03:00:00Z,28.8667,-90.4833,10.0,5.597,107.0,,'11111222,11111222,99999999' 
WAVCIS,ioos:station:WAVCIS:CSI06:1,2010-09-09T04:00:00Z,28.8667,-90.4833,10.0,5.481,115.0,,'11111222,11111222,99999999' 
WAVCIS,ioos:station:WAVCIS:CSI06:1,2010-09-09T05:00:00Z,28.8667,-90.4833,10.0,6.657,116.0,,'11111222,11111222,99999999' 
WAVCIS,ioos:station:WAVCIS:CSI06:1,2010-09-09T06:00:00Z,28.8667,-90.4833,10.0,5.586,121.0,,'11111222,11111222,99999999' 